Flag for Bermuda

Past Weather in Hamilton, Bermuda — Yesterday and Last 2 Weeks

Now
81 °F

Passing clouds.


Feels Like: 86 °F
Forecast: 83 / 79 °F
Wind: 10 mph from South

Location: Bermuda

Current Time: Jul 11, 2020 at 1:19:54 am

Latest Report: Jul 11, 2020 at 12:55 am


Visibility: N/A

Pressure: 30.18 "Hg

Humidity: 84%

Dew Point: 75 °F

Location of HamiltonLocation

Past Weather in Hamilton — Graph

°F

Hamilton Temperature Yesterday

Maximum temperature yesterday: 84 °F (at 1:55 pm)
Minimum temperature yesterday: 79 °F (at 12:55 am)
Average temperature yesterday: 81 °F

High & Low Weather Summary for the Past Weeks

 TemperatureHumidityPressure
High84 °F (Jul 10, 1:55 pm)100% (Jun 30, 1:16 pm)30.24 "Hg (Jun 30, 1:16 pm)
Low70 °F (Jul 3, 1:01 pm)66% (Jun 27, 3:55 pm)29.89 "Hg (Jul 4, 1:55 am)
Average78 °F86%30.06 "Hg
* Reported Jun 25 11:55 pm — Jul 10 11:55 pm, Hamilton. Weather by CustomWeather, © 2020

Note: Actual official high and low records may vary slightly from our data, if they occured in-between our weather recording intervals... More about our weather records

Hamilton Weather History for the Previous 24 Hours

Scroll right to see more
 ConditionsComfort  
Time TempWeatherWind HumidityBarometerVisibility
11:55 pm
Fri, Jul 10
79 °FPassing clouds.9 mph89%30.18 "HgN/A
10:55 pm79 °FPartly cloudy.9 mph89%30.18 "HgN/A
9:55 pm81 °FPassing clouds.10 mph84%30.18 "HgN/A
8:55 pm81 °FPassing clouds.12 mph84%30.18 "HgN/A
7:55 pm81 °FScattered clouds.12 mph84%30.15 "HgN/A
6:55 pm81 °FPassing clouds.14 mph84%30.15 "HgN/A
5:55 pm82 °FPassing clouds.13 mph79%30.15 "HgN/A
4:55 pm82 °FPassing clouds.15 mph79%30.15 "HgN/A
3:55 pm82 °FPassing clouds.14 mph79%30.18 "HgN/A
2:55 pm84 °FPassing clouds.14 mph74%30.18 "HgN/A
1:55 pm84 °FPassing clouds.14 mph74%30.18 "HgN/A
12:55 pm82 °FScattered clouds.16 mph79%30.21 "HgN/A
11:55 am82 °FPartly sunny.14 mph84%30.21 "HgN/A
10:55 am82 °FScattered clouds.14 mph84%30.18 "HgN/A
9:55 am82 °FScattered clouds.14 mph79%30.18 "HgN/A
8:55 am81 °FPassing clouds.15 mph84%30.18 "HgN/A
7:55 am81 °FPassing clouds.13 mph84%30.15 "HgN/A
6:55 am79 °FPassing clouds.14 mph89%30.15 "HgN/A
5:55 am79 °FPassing clouds.13 mph89%30.12 "HgN/A
4:55 am79 °FPassing clouds.9 mph89%30.12 "HgN/A
3:55 am79 °FPassing clouds.9 mph89%30.12 "HgN/A
2:55 am79 °FPassing clouds.12 mph89%30.12 "HgN/A
1:55 am79 °FPassing clouds.12 mph84%30.15 "HgN/A
Weather by CustomWeather, © 2020

See weather overview